CZ-6A DEB, 55522

Orbit data source: Space-Track

CZ-6A DEB, 55522 is space debris in SSO originally from a launch on Fri, 11 Nov 2022 UTC launched from the Taiyaun Space Center, China (TSC). Debris objects in space refer to the collection of defunct objects orbiting the Earth. Examples of debris include non-operational satellites, rocket bodies, and fragments generated from explosions, collisions, or faulty payload assembly.

Loading next visibility...
Identifier
55522, 2022-151XU
Orbit
SSO
Country
Flag of CNCN / PRC
Related business
Manufacturer
SAST
Mission
Spacecraft
Bus & Motor
Unknown
Mass
Unknown
Launch date (UTC)
2022-11-11 (4 years ago)
Launch vehicle
Unknown
Launch site
Taiyaun Space Center, China (TSC)
Object type
Payload
Rocket body
Debris
Shape & HBR
Unknown shape, 0.1 m
Radar Cross Section
Medium (>0.1 m² and <1 m²)

Expand to show TLE details & history
Last TLE update: 2 days ago

TLE from 2 days ago
0 CZ-6A DEB
1 55522U 22151XU  26171.08327036  .00007308  00000-0  13078-2 0  9995
2 55522  98.6056 225.9529 0064389 295.9445  63.5132 14.65820142185059
Epoch: 2026-06-20T01:59Z
TLE epoch observation values (Epoch: 2026-06-20T01:59:54.559Z)
Latitude
0.00005°
Longitude
-72.32742°
Altitude
657.402 km
Speed
7.539 km/s
True Right ascension
15h 03m 48s
True Declination
0° 00' 00"
Sunlit
Object was in full shadow at epoch
Visualization orbit readout
Latitude
Unknown
Longitude
Unknown
Altitude
Unknown
Speed
Unknown
Apparent Right ascension
Unknown
Apparent Declination
Unknown
Sunlit
N/A
Visualization observer readout
Local Sidereal Time
21:39:54
Azimuth
Unknown
Elevation
Unknown
Doppler factor
Unknown
Orbital elements
Apogee altitude
716.928 km
Perigee altitude
626.144 km
Semi-major axis
7,049.673 km
Eccentricity
0.00644
Inclination
98.6056°
RAAN
225.9529°
Arg. of periapsis
295.9445°
True anomaly
64.17596°
Mean anomaly
63.5132°
Eccentric anomaly
63.84434°
Mean motion
3.66682 °/min
Orbital period
98.18 mins
BSTAR
0.0013078
Loading maneuver chart data...
Computing Atmospheric mass density...
Loading historical data...
Loading historical data...
Loading historical data...
Loading historical data...
Loading historical data...
Loading historical data...
Loading historical data...

Documentation

Showing up to 5 results
|